Regional Weather Roundup
Issued by NWS Memphis, TN

Home | Current Version | Previous Version | Text Only | Print | Product List | Glossary On
Versions: 1 2 3 4 5 6 7 8 9 10 11 12 13 14 15 16 17 18 19 20 21 22 23 24 25 26 27 28 29 30 31 32 33 34 35 36 37 38 39 40 41 42 43 44 45 46 47 48 49 50
000
ASUS44 KMEG 260210
RWRMEG
MEMPHIS CWA HOURLY WEATHER ROUNDUP
NATIONAL WEATHER SERVICE MEMPHIS TN
900 PM CDT MON JUL 25 2016

...WEST TENNESSEE...

CITY           SKY/WX    TMP DP  RH WIND       PRES   REMARKS
MEMPHIS INTL   PTCLDY    86  74  67 NE5       29.96R HX  94
NWS MEMPHIS      N/A     82 N/A N/A MISG        N/A
JACKSON        CLEAR     76  75  97 CALM      29.98R
LEXINGTON      CLEAR     77  72  83 CALM      29.98R
DYERSBURG      PTCLDY   N/A N/A N/A MISG        N/A
UNION CITY     CLEAR     77  75  94 CALM      29.97S
PARIS          CLEAR     73  72  94 CALM      29.99F


...EASTERN ARKANSAS...

CITY           SKY/WX    TMP DP  RH WIND       PRES   REMARKS
JONESBORO      PTCLDY    83  78  85 E5        29.96R HX  93
WEST MEMPHIS   CLEAR     80  76  87 CALM      29.95R
BATESVILLE     CLOUDY    79  72  78 W5        29.97S
NEWPORT        CLEAR     81  80  96 NE5       29.97R HX  91
WALNUT RIDGE   CLOUDY    79  73  83 NW6       29.95S
BLYTHEVILLE    PTCLDY    80  78  94 N5        29.97R
SEARCY         CLEAR     84  78  82 CALM      29.97R HX  95
STUTTGART      CLEAR     88  73  62 SE6       29.95S HX  96
PINE BLUFF     CLEAR     83  78  85 SE5       29.95R HX  93
MONTICELLO     CLEAR     84  78  82 CALM      29.94R HX  95


...NORTH MISSISSIPPI...

CITY           SKY/WX    TMP DP  RH WIND       PRES   REMARKS
TUPELO         CLEAR     86  71  60 S6        29.96S HX  91
OXFORD         CLEAR     79  73  83 CALM      29.99R
BATESVILLE     CLEAR     79  75  88 CALM      29.97R
TUNICA         CLEAR     81  73  78 SE3       29.95R
CLARKSDALE     CLEAR     84  79  84 CALM      29.95R HX  96
CORINTH        CLEAR     81  73  78 CALM      29.97R
GREENWOOD      CLEAR     81  73  76 CALM      29.94R
COLUMBUS       CLEAR     84  77  79 CALM      29.95S HX  94
GOLDEN TRIANGL CLEAR     88  70  55 SE6       29.95S HX  92


...SOUTHEAST MISSOURI...

CITY           SKY/WX    TMP DP  RH WIND       PRES   REMARKS
KENNETT          N/A     82  81  94 CALM      29.96R HX  95
WEST PLAINS    CLOUDY    78  71  79 CALM      30.04R
POPLAR BLUFF   PTCLDY    79  75  87 CALM      29.98R
CAPE GIRARDEAU PTCLDY    78  76  93 SW5       29.97R


...NORTHWEST ALABAMA...

CITY           SKY/WX    TMP DP  RH WIND       PRES   REMARKS
MUSCLE SHOALS  CLEAR     81  76  84 CALM      29.99R


...MIDDLE TENNESSEE...

CITY           SKY/WX    TMP DP  RH WIND       PRES   REMARKS
NASHVILLE      MOCLDY    86  72  62 E3        30.01R HX  92
CLARKSVILLE    LGT RAIN  75  72  90 CALM      29.98F
COLUMBIA       CLEAR     84  75  74 S3        29.99S HX  92


...WESTERN KENTUCKY...

CITY           SKY/WX    TMP DP  RH WIND       PRES   REMARKS
PADUCAH        CLOUDY    78  74  87 CALM      29.97R
FORT CAMPBELL  CLOUDY    75  72  92 W2        29.98F


...CENTRAL ARKANSAS...

CITY           SKY/WX    TMP DP  RH WIND       PRES   REMARKS
LITTLE ROCK    PTCLDY    89  75  63 CALM      29.95R HX  99


SKY/WX REPORTED AS FAIR MEANS FEW OR NO CLOUDS BELOW
12 THOUSAND FEET.




USA.gov is the U.S. government's official web portal to all federal, state and local government web resources and services.